Regional Weather Roundup
Issued by NWS

Home | Current Version | Previous Version | Text Only | Print | Product List | Glossary Off
Versions: 1 2 3 4 5 6 7 8 9 10 11 12 13 14 15 16 17 18 19 20 21 22 23 24 25 26 27 28 29 30 31 32 33 34 35 36 37 38 39 40 41 42 43 44 45 46 47 48 49 50

000
ASUS45 KTFX 010004
RWRMT
MONTANA HOURLY WEATHER ROUNDUP
NATIONAL WEATHER SERVICE GREAT FALLS MT
504 PM MST SAT JAN 31 2015

NOTE: "FAIR" INDICATES FEW OR NO CLOUDS BELOW 12000 FEET WITH NO
SIGNIFICANT WEATHER AND/OR OBSTRUCTIONS TO VISIBILITY.

* THESE STATIONS ARE NOT UNDER NWS QUALITY CONTROL. THEY DO NOT
   REPORT WEATHER SUCH AS PRECIPITATION OR FOG.

MTZ001>007-043-010100-
WEST OF THE DIVIDE
CITY           SKY/WX    TMP DP  RH WIND       PRES   REMARKS
KALISPELL      CLOUDY    28  18  66 NE13      30.22R WCI  17
MISSOULA       CLEAR     37  25  62 N15G23    30.15R WCI  28
BUTTE          CLEAR     30  19  64 W9        30.07R WCI  22
MULLAN PASS    FOG       23  19  85 CALM      30.10S VSB 1/2
* ANACONDA     CLEAR     27  18  69 N7         N/A   WCI  19
* ESSEX        N/A       21   9  60 SE7        N/A   WCI  12
* LINCOLN      N/A       16   6  64 NE6G17     N/A   WCI   7
* LOOKOUT PASS N/A       25  24  96 VRB3       N/A
* POLSON       N/A       27  26  96 N2         N/A
* RONAN APT    CLEAR     28  28 100 N/A        N/A
* SEELEY LAKE  N/A       31  19  61 SE4        N/A
* THOMP F APT  CLEAR     21  18  88 SW2        N/A
$$

MTZ008-052>055-010100-
SOUTHWEST MONTANA
CITY           SKY/WX    TMP DP  RH WIND       PRES   REMARKS
DILLON         CLEAR     34  19  54 NE14      30.04R WCI  24
* W YELLOWSTON CLEAR     25  17  72 SW4G12     N/A
* THREE FORKS  PTCLDY    25  16  69 N/A        N/A
* BOULDER HILL N/A       13   8  80 N15G23     N/A   WCI  -3
* MONIDA PASS  N/A       30  13  49 NW19       N/A   WCI  18
* RAYNOLDS PAS N/A       20   2  45 SE13       N/A   WCI   7
* WHITEHALL    N/A       31  12  45 E9G17      N/A   WCI  23
* WISE RIVER   N/A       39   9  29 NW9G15     N/A   WCI  33
$$

MTZ009>010-012-014-046-048-049-054-010100-
EAST SLOPES AND CENTRAL MONTANA
CITY           SKY/WX    TMP DP  RH WIND       PRES   REMARKS
GREAT FALLS    LGT SNOW  10   7  88 NW7       30.32R VSB 3/4  WCI  -1
HELENA         CLOUDY    19   9  65 N10       30.26R WCI   8
MALMSTROM AFB  LGT SNOW  10   7  88 NW9       30.34R VSB 2 3/4 WCI  -3
* DEARBORN     N/A       15   9  77 N/A        N/A
* EAST GLACIER N/A        8   4  84 E8         N/A   WCI  -4
* MONARCH      N/A        5   1  83 NW10       N/A   WCI -10
* PENDROY      N/A        9   5  84 N14G20     N/A   WCI  -7
* ROGERS PASS  N/A        9   4  80 S3         N/A
* SWEET GRASS  N/A        6   4  91 N14        N/A   WCI -11
$$

MTZ011-013-016-021-035-040-045-047-050-051-010100-
NORTH CENTRAL MONTANA
CITY           SKY/WX    TMP DP  RH WIND       PRES   REMARKS
HAVRE          LGT SNOW  10   3  73 NE7       30.39R VSB 2 1/2 WCI  -1
LEWISTOWN      LGT SNOW  12   9  88 NW10      30.23R VSB 3    WCI  -1
* CHESTER      N/A       10   3  73 NE8        N/A   WCI  -2
* DENTON       N/A       12   8  84 NW17G23    N/A   WCI  -5
* GEYSER       N/A        9   4  80 W17G22     N/A   WCI  -9
* JUDITH GAP   N/A       11   8  88 VRB17G26    N/A   WCI  -6
* LOMA         N/A       13   8  80 N6         N/A   WCI   4
$$

MTZ017>020-022>027-061-062-010100-
NORTHEAST MONTANA
CITY           SKY/WX    TMP DP  RH WIND       PRES   REMARKS
GLASGOW        LGT SNOW   9   3  76 NE18      30.35R VSB 1 3/4 WCI  -9
GLENDIVE       PTCLDY    10   5  80 NE17      30.25R WCI  -8
JORDAN         MOCLDY    10   7  88 N13       30.28R WCI  -5
SIDNEY         PTCLDY     7   0  73 N14G23    30.36R VSB 1 1/4 WCI -10
WOLF POINT     LGT SNOW   9   1  70 NE15G23   30.38R VSB 2 1/2 WCI  -8
* BEAVER HILL  N/A        8   4  84 NE16G22    N/A   WCI -10
* CIRCLE       N/A       10   7  88 N9G16      N/A   WCI  -3
* LINDSAY DVD  N/A        7   4  87 NE14       N/A   WCI -10
* NAVAJO       N/A        2  -3  79 NE12       N/A   WCI -15
* SACO         N/A        9   3  76 N16        N/A   WCI  -8
$$

MTZ028>042-056>058-010100-
SOUTHCENTRAL AND SOUTHEAST MONTANA
CITY           SKY/WX    TMP DP  RH WIND       PRES   REMARKS
BAKER          LGT SNOW  14  10  84 E17       30.14R VSB 1 1/4 WCI  -2
BILLINGS       MOCLDY    21  16  81 NE15      30.19R WCI   7
LIVINGSTON     CLOUDY    25  10  53 NW15      30.13R WCI  13
MILES CITY     LGT SNOW  16  12  84 NE22G32   30.18R VSB 1 3/4 WCI  -2
* LAUREL APT   MOCLDY    23   9  55 N6         N/A   WCI  16
* ROUNDUP APT  MOCLDY    18   9  68 N22G29     N/A   WCI   1
* ALZADA       N/A       21  19  92 E8         N/A   WCI  11
* HYSHAM       N/A       17  14  88 NW3G11     N/A
* LAME DEER    N/A       20  18  92 N10G20     N/A   WCI   9
* REED POINT   N/A       24  20  85 SE1        N/A
* ROSCOE HILL  N/A       19  16  88 N6         N/A   WCI  11
$$

REGIONAL REPORTS...DAKOTAS
CITY           SKY/WX    TMP DP  RH WIND       PRES   REMARKS
WILLISTON      LGT SNOW   3  -2  79 NE15      30.39R VSB 2    WCI -16
BISMARCK       LGT SNOW   7   0  73 NE17      30.34R WCI -11
GRAND FORKS    MOCLDY    -4 -11  71 N18G24    30.47R WCI -26
FARGO          CLOUDY     7  -8  50 N22G28    30.38R WCI -14
BUFFALO SD     CLOUDY    18  16  92 E18       30.01R WCI   2
RAPID CITY     FOG       19  19 100 NE12      30.02R VSB M1/4 WCI   6
$$

REGIONAL REPORTS...WYOMING/IDAHO/WASHINGTON
CITY           SKY/WX    TMP DP  RH WIND       PRES   REMARKS
GILLETTE       LGT SNOW  27  25  92 NW25G31   29.96R VSB 1/2  WCI  12
SHERIDAN       LGT SNOW  27  19  72 NW25      30.08R VSB 3    WCI  12
CODY           CLOUDY    25  21  85 N21G29    30.03R WCI  10
YELLOWSTONE LA PTCLDY    25  10  53 VRB3      29.99R
SALMON         CLEAR     27  18  69 NE5       30.18S WCI  21
MULLAN PASS    FOG       23  19  85 CALM      30.10S VSB 1/2
SPOKANE        CLOUDY    32  28  85 CALM      30.26F

$$




USA.gov is the U.S. government's official web portal to all federal, state and local government web resources and services.